Location: Julian California
(33.0790°N, 116.6010°W)
Time: 08:24:39
(UTC-07:00)

H-2A R/B - Pass Details

Date: 19 May 2017
Orbit: 504 x 548 km, 97.3° (Epoch: 19 May)

Event Time Altitude Azimuth Distance (km) Brightness Sun altitude
Rises 20:23:55 0° 181° (S) 2,617 6.0 -8.6°
Reaches altitude 10° 20:26:05 10° 189° (S) 1,728 5.1 -9.0°
Maximum altitude 20:29:38 42° 261° (W) 730 3.9 -9.6°
Drops below altitude 10° 20:33:10 10° 334° (NNW) 1,722 6.3 -10.2°
Sets 20:35:20 0° 341° (NNW) 2,607 7.2 -10.6°
